Location: Leuk
(46.3174°N, 7.6341°E)
Time: 13:55:51
(UTC+00:00)

Spot 4 Rocket - Pass Details

Date: 09 March 2021
Orbit: 777 x 780 km, 98.7° (Epoch: 17 April)

Event Time Altitude Azimuth Distance (km) Brightness Sun altitude
Rises 03:39:12 0° 9° (N) 3,273 7.6 -23.7°
Reaches altitude 10° 03:41:36 10° 3° (N) 2,341 6.8 -23.3°
Enters shadow 03:46:27 46° 293° (WNW) 1,043 4.3 -22.5°
